Time,TemperatureF,DewpointF,PressureIn,WindDirection,WindDirectionDegrees,WindSpeedMPH,WindSpeedGustMPH,Humidity,HourlyPrecipIn,Conditions,Clouds,dailyrainin,SoftwareType,DateUTC
2013-06-04 00:00:00,57.2,57.2,30.04,NNE,27,0.0,0.0,100,0.00,,CLR,0.00,VWS V14.01,2013-06-04 04:00:00,
2013-06-04 00:01:00,57.2,57.2,30.04,NNE,27,0.0,0.0,100,0.00,,CLR,0.00,VWS V14.01,2013-06-04 04:01:00,
2013-06-04 00:02:00,57.2,57.2,30.04,NNE,27,0.0,0.0,100,0.00,,CLR,0.00,VWS V14.01,2013-06-04 04:02:00,
2013-06-04 00:04:00,57.0,57.0,30.04,NNE,27,0.0,0.0,100,0.00,,CLR,0.00,VWS V14.01,2013-06-04 04:04:00,
2013-06-04 00:05:00,57.0,57.0,30.04,NNE,27,0.0,0.0,100,0.00,,CLR,0.00,VWS V14.01,2013-06-04 04:05:00,
2013-06-04 00:11:00,56.8,56.8,30.04,NNE,27,0.0,0.0,100,0.00,,CLR,0.00,VWS V14.01,2013-06-04 04:11:00,
2013-06-04 00:16:00,56.8,56.8,30.04,NNE,27,0.0,0.0,100,0.00,,CLR,0.00,VWS V14.01,2013-06-04 04:16:00,
2013-06-04 00:21:00,56.7,56.7,30.04,NNE,27,0.0,0.0,100,0.00,,CLR,0.00,VWS V14.01,2013-06-04 04:21:00,
2013-06-04 00:26:00,56.5,56.5,30.04,NNE,27,0.0,0.0,100,0.00,,CLR,0.00,VWS V14.01,2013-06-04 04:26:00,
2013-06-04 00:31:00,56.3,56.3,30.04,NNE,27,0.0,0.0,100,0.00,,CLR,0.00,VWS V14.01,2013-06-04 04:31:00,
2013-06-04 00:37:00,56.3,56.3,30.04,NNE,27,0.0,0.0,100,0.00,,CLR,0.00,VWS V14.01,2013-06-04 04:37:00,
2013-06-04 00:42:00,56.1,56.1,30.07,NNE,27,0.0,0.0,100,0.00,,CLR,0.00,VWS V14.01,2013-06-04 04:42:00,
2013-06-04 00:47:00,55.9,55.9,30.07,NNE,27,0.0,0.0,100,0.00,,CLR,0.00,VWS V14.01,2013-06-04 04:47:00,
2013-06-04 00:52:00,55.9,55.9,30.07,NNE,27,0.0,0.0,100,0.00,,CLR,0.00,VWS V14.01,2013-06-04 04:52:00,
2013-06-04 00:57:00,55.6,55.6,30.07,NNE,27,0.0,0.0,100,0.00,,CLR,0.00,VWS V14.01,2013-06-04 04:57:00,
2013-06-04 01:02:00,55.4,55.4,30.07,NNE,27,0.0,0.0,100,0.00,,CLR,0.00,VWS V14.01,2013-06-04 05:02:00,
2013-06-04 01:07:00,55.2,55.2,30.07,NNE,27,0.0,0.0,100,0.00,,CLR,0.00,VWS V14.01,2013-06-04 05:07:00,
2013-06-04 01:13:00,55.0,55.0,30.04,NNE,27,0.0,0.0,100,0.00,,CLR,0.00,VWS V14.01,2013-06-04 05:13:00,
2013-06-04 01:18:00,54.9,54.9,30.04,NNE,27,0.0,0.0,100,0.00,,CLR,0.00,VWS V14.01,2013-06-04 05:18:00,
2013-06-04 01:23:00,54.7,54.7,30.04,NNE,27,0.0,0.0,100,0.00,,CLR,0.00,VWS V14.01,2013-06-04 05:23:00,
2013-06-04 01:28:00,54.5,54.5,30.07,NNE,27,0.0,0.0,100,0.00,,CLR,0.00,VWS V14.01,2013-06-04 05:28:00,
2013-06-04 01:33:00,54.5,54.5,30.07,NNE,27,0.0,0.0,100,0.00,,CLR,0.00,VWS V14.01,2013-06-04 05:33:00,
2013-06-04 01:39:00,54.3,54.3,30.04,NNE,27,0.0,0.0,100,0.00,,CLR,0.00,VWS V14.01,2013-06-04 05:39:00,
2013-06-04 01:44:00,54.0,54.0,30.04,NNE,27,0.0,0.0,100,0.00,,CLR,0.00,VWS V14.01,2013-06-04 05:44:00,
2013-06-04 01:49:00,53.8,53.8,30.04,NNE,27,0.0,0.0,100,0.00,,CLR,0.00,VWS V14.01,2013-06-04 05:49:00,
2013-06-04 01:54:00,53.6,53.6,30.04,NNE,27,0.0,0.0,100,0.00,,CLR,0.00,VWS V14.01,2013-06-04 05:54:00,
2013-06-04 01:59:00,53.4,53.4,30.04,NNE,27,0.0,0.0,100,0.00,,CLR,0.00,VWS V14.01,2013-06-04 05:59:00,
2013-06-04 02:04:00,53.2,53.2,30.04,NNE,27,0.0,0.0,100,0.00,,CLR,0.00,VWS V14.01,2013-06-04 06:04:00,
2013-06-04 02:09:00,53.2,53.2,30.07,NNE,27,0.0,0.0,100,0.00,,CLR,0.00,VWS V14.01,2013-06-04 06:09:00,
2013-06-04 02:14:00,53.4,53.4,30.07,NNE,27,0.0,0.0,100,0.00,,CLR,0.00,VWS V14.01,2013-06-04 06:14:00,
2013-06-04 02:20:00,53.2,53.2,30.07,NNE,27,0.0,0.0,100,0.00,,CLR,0.00,VWS V14.01,2013-06-04 06:20:00,
2013-06-04 02:25:00,53.1,53.1,30.07,NNE,27,0.0,0.0,100,0.00,,CLR,0.00,VWS V14.01,2013-06-04 06:25:00,
2013-06-04 02:30:00,52.7,52.7,30.07,NNE,27,0.0,0.0,100,0.00,,CLR,0.00,VWS V14.01,2013-06-04 06:30:00,
2013-06-04 02:35:00,52.5,52.5,30.07,NNE,27,0.0,0.0,100,0.00,,CLR,0.00,VWS V14.01,2013-06-04 06:35:00,
2013-06-04 02:40:00,52.5,52.5,30.07,NNE,27,0.0,0.0,100,0.00,,CLR,0.00,VWS V14.01,2013-06-04 06:40:00,
2013-06-04 02:45:00,52.3,52.3,30.07,NNE,27,0.0,0.0,100,0.00,,CLR,0.00,VWS V14.01,2013-06-04 06:45:00,
2013-06-04 02:50:00,52.3,52.3,30.07,NNE,27,0.0,0.0,100,0.00,,CLR,0.00,VWS V14.01,2013-06-04 06:50:00,
2013-06-04 02:56:00,52.2,52.2,30.07,NNE,27,0.0,0.0,100,0.00,,CLR,0.00,VWS V14.01,2013-06-04 06:56:00,
2013-06-04 03:01:00,52.2,52.2,30.07,NNE,27,0.0,0.0,100,0.00,,CLR,0.00,VWS V14.01,2013-06-04 07:01:00,
2013-06-04 03:06:00,52.2,52.2,30.07,NNE,27,0.0,0.0,100,0.00,,CLR,0.00,VWS V14.01,2013-06-04 07:06:00,
2013-06-04 03:11:00,52.0,52.0,30.07,NNE,27,0.0,0.0,100,0.00,,CLR,0.00,VWS V14.01,2013-06-04 07:11:00,
2013-06-04 03:16:00,52.0,52.0,30.07,NNE,27,0.0,0.0,100,0.00,,CLR,0.00,VWS V14.01,2013-06-04 07:16:00,
2013-06-04 03:22:00,51.8,51.8,30.07,NNE,27,0.0,0.0,100,0.00,,CLR,0.00,VWS V14.01,2013-06-04 07:22:00,
2013-06-04 03:27:00,51.6,51.6,30.07,NNE,27,0.0,0.0,100,0.00,,CLR,0.00,VWS V14.01,2013-06-04 07:27:00,
2013-06-04 03:32:00,51.6,51.6,30.07,NNE,27,0.0,0.0,100,0.00,,CLR,0.00,VWS V14.01,2013-06-04 07:32:00,
2013-06-04 03:37:00,51.6,51.6,30.07,NNE,27,0.0,0.0,100,0.00,,CLR,0.00,VWS V14.01,2013-06-04 07:37:00,
2013-06-04 03:43:00,51.6,51.6,30.07,NNE,27,0.0,0.0,100,0.00,,CLR,0.00,VWS V14.01,2013-06-04 07:43:00,
2013-06-04 03:48:00,51.6,51.6,30.07,NNE,27,0.0,0.0,100,0.00,,CLR,0.00,VWS V14.01,2013-06-04 07:48:00,
2013-06-04 03:53:00,51.6,51.6,30.07,NNE,27,0.0,0.0,100,0.00,,CLR,0.00,VWS V14.01,2013-06-04 07:53:00,
2013-06-04 03:58:00,51.4,51.4,30.07,NNE,27,0.0,0.0,100,0.00,,CLR,0.00,VWS V14.01,2013-06-04 07:58:00,
2013-06-04 04:03:00,51.4,51.4,30.07,NNE,27,0.0,0.0,100,0.00,,CLR,0.00,VWS V14.01,2013-06-04 08:03:00,
2013-06-04 04:08:00,51.4,51.4,30.07,NNE,27,0.0,0.0,100,0.00,,CLR,0.00,VWS V14.01,2013-06-04 08:08:00,
2013-06-04 04:13:00,51.4,51.4,30.07,NNE,27,0.0,0.0,100,0.00,,CLR,0.00,VWS V14.01,2013-06-04 08:13:00,
2013-06-04 04:18:00,51.6,51.6,30.07,NNE,27,0.0,0.0,100,0.00,,CLR,0.00,VWS V14.01,2013-06-04 08:18:00,
2013-06-04 04:23:00,51.4,51.4,30.07,NNE,27,0.0,0.0,100,0.00,,CLR,0.00,VWS V14.01,2013-06-04 08:23:00,
2013-06-04 04:29:00,51.6,51.6,30.07,NNE,27,0.0,0.0,100,0.00,,CLR,0.00,VWS V14.01,2013-06-04 08:29:00,
2013-06-04 04:34:00,51.4,51.4,30.07,NNE,27,0.0,0.0,100,0.00,,CLR,0.00,VWS V14.01,2013-06-04 08:34:00,
2013-06-04 04:39:00,51.3,51.3,30.07,NNE,27,0.0,0.0,100,0.00,,CLR,0.00,VWS V14.01,2013-06-04 08:39:00,
2013-06-04 04:44:00,51.1,51.1,30.07,NNE,27,0.0,0.0,100,0.00,,CLR,0.00,VWS V14.01,2013-06-04 08:44:00,
2013-06-04 04:49:00,50.9,50.9,30.07,NNE,27,0.0,0.0,100,0.00,,CLR,0.00,VWS V14.01,2013-06-04 08:49:00,
2013-06-04 04:54:00,50.9,50.9,30.07,NNE,27,0.0,0.0,100,0.00,,CLR,0.00,VWS V14.01,2013-06-04 08:54:00,
2013-06-04 05:00:00,50.7,50.7,30.07,NNE,27,0.0,0.0,100,0.00,,CLR,0.00,VWS V14.01,2013-06-04 09:00:00,
2013-06-04 05:05:00,50.7,50.7,30.07,NNE,27,0.0,0.0,100,0.00,,CLR,0.00,VWS V14.01,2013-06-04 09:05:00,
2013-06-04 05:10:00,50.7,50.7,30.07,NNE,27,0.0,0.0,100,0.00,,CLR,0.00,VWS V14.01,2013-06-04 09:10:00,
2013-06-04 05:15:00,50.9,50.9,30.07,NNE,27,0.0,0.0,100,0.00,,CLR,0.00,VWS V14.01,2013-06-04 09:15:00,
2013-06-04 05:21:00,50.9,50.9,30.07,NNE,27,0.0,0.0,100,0.00,,CLR,0.00,VWS V14.01,2013-06-04 09:21:00,
2013-06-04 05:26:00,51.1,51.1,30.07,NNE,27,0.0,0.0,100,0.00,,CLR,0.00,VWS V14.01,2013-06-04 09:26:00,
2013-06-04 05:31:00,51.1,51.1,30.07,NNE,27,0.0,0.0,100,0.00,,CLR,0.00,VWS V14.01,2013-06-04 09:31:00,
2013-06-04 05:36:00,51.1,51.1,30.07,NNE,27,0.0,0.0,100,0.00,,CLR,0.00,VWS V14.01,2013-06-04 09:36:00,
2013-06-04 05:41:00,51.1,51.1,30.07,NNE,24,0.0,0.0,100,0.00,,CLR,0.00,VWS V14.01,2013-06-04 09:41:00,
2013-06-04 05:47:00,51.1,51.1,30.07,NNE,27,0.0,0.0,100,0.00,,CLR,0.00,VWS V14.01,2013-06-04 09:47:00,
2013-06-04 05:52:00,51.1,51.1,30.07,NNE,29,0.0,0.0,100,0.00,,CLR,0.00,VWS V14.01,2013-06-04 09:52:00,
2013-06-04 05:57:00,51.1,51.1,30.10,NNE,27,0.0,0.0,100,0.00,,CLR,0.00,VWS V14.01,2013-06-04 09:57:00,
2013-06-04 06:02:00,51.1,51.1,30.10,NNE,25,0.0,0.0,100,0.00,,CLR,0.00,VWS V14.01,2013-06-04 10:02:00,
2013-06-04 06:07:00,50.9,50.9,30.10,NNE,23,0.0,0.0,100,0.00,,CLR,0.00,VWS V14.01,2013-06-04 10:07:00,
2013-06-04 06:12:00,50.9,50.9,30.10,NNE,23,0.0,0.0,100,0.00,,CLR,0.00,VWS V14.01,2013-06-04 10:12:00,
2013-06-04 06:18:00,50.9,50.9,30.10,NNE,23,0.0,0.0,100,0.00,,CLR,0.00,VWS V14.01,2013-06-04 10:18:00,
2013-06-04 06:23:00,50.7,50.7,30.10,NNE,22,0.0,0.0,100,0.00,,CLR,0.00,VWS V14.01,2013-06-04 10:23:00,
2013-06-04 06:28:00,50.7,50.7,30.10,NNE,23,0.0,0.0,100,0.00,,CLR,0.00,VWS V14.01,2013-06-04 10:28:00,
2013-06-04 06:34:00,50.7,50.7,30.10,NNE,23,0.0,0.0,100,0.00,,CLR,0.00,VWS V14.01,2013-06-04 10:34:00,
2013-06-04 06:39:00,50.7,50.7,30.10,NNE,24,0.0,0.0,100,0.00,,CLR,0.00,VWS V14.01,2013-06-04 10:39:00,
2013-06-04 06:44:00,50.7,50.7,30.10,NNE,23,0.0,0.0,100,0.00,,CLR,0.00,VWS V14.01,2013-06-04 10:44:00,
2013-06-04 06:49:00,50.7,50.7,30.10,NNE,23,0.0,0.0,100,0.00,,CLR,0.00,VWS V14.01,2013-06-04 10:49:00,
2013-06-04 06:54:00,50.9,50.9,30.10,NNE,25,0.0,0.0,100,0.00,,CLR,0.00,VWS V14.01,2013-06-04 10:54:00,
2013-06-04 06:59:00,51.1,51.1,30.10,NNE,23,0.0,0.0,100,0.00,,CLR,0.00,VWS V14.01,2013-06-04 10:59:00,
2013-06-04 07:04:00,51.3,51.3,30.10,NNE,23,0.0,0.0,100,0.00,,CLR,0.00,VWS V14.01,2013-06-04 11:04:00,
2013-06-04 07:10:00,51.4,51.4,30.13,NNE,23,0.0,0.0,100,0.00,,CLR,0.00,VWS V14.01,2013-06-04 11:10:00,
2013-06-04 07:15:00,51.6,51.6,30.13,NNE,23,0.0,0.0,100,0.00,,CLR,0.00,VWS V14.01,2013-06-04 11:15:00,
2013-06-04 07:20:00,52.0,52.0,30.13,NNE,23,0.0,0.0,100,0.00,,CLR,0.00,VWS V14.01,2013-06-04 11:20:00,
2013-06-04 07:25:00,52.2,52.2,30.10,NNE,23,0.0,0.0,100,0.00,,CLR,0.00,VWS V14.01,2013-06-04 11:25:00,
2013-06-04 07:30:00,52.3,52.3,30.10,NNE,23,0.0,0.0,100,0.00,,CLR,0.00,VWS V14.01,2013-06-04 11:30:00,
2013-06-04 07:35:00,52.5,52.5,30.10,NNE,23,0.0,0.0,100,0.00,,CLR,0.00,VWS V14.01,2013-06-04 11:35:00,
2013-06-04 07:40:00,52.7,52.7,30.10,NNE,23,0.0,0.0,100,0.00,,CLR,0.00,VWS V14.01,2013-06-04 11:40:00,
2013-06-04 07:45:00,52.9,52.9,30.10,North,4,3.7,5.6,100,0.00,,FEW250,0.00,VWS V14.01,2013-06-04 11:45:00,
2013-06-04 07:51:00,52.9,52.9,30.10,North,357,3.7,5.6,100,0.00,,FEW250,0.00,VWS V14.01,2013-06-04 11:51:00,
2013-06-04 07:56:00,53.1,53.1,30.10,North,9,0.0,0.0,100,0.00,,FEW250,0.00,VWS V14.01,2013-06-04 11:56:00,
2013-06-04 08:02:00,53.6,53.6,30.10,North,9,0.0,0.0,100,0.00,,FEW250,0.00,VWS V14.01,2013-06-04 12:02:00,
2013-06-04 08:07:00,54.0,54.0,30.10,North,9,0.0,0.0,100,0.00,,FEW250,0.00,VWS V14.01,2013-06-04 12:07:00,
2013-06-04 08:12:00,54.9,54.9,30.10,NE,45,6.6,8.5,100,0.00,,FEW250,0.00,VWS V14.01,2013-06-04 12:12:00,
2013-06-04 08:17:00,55.8,55.8,30.10,ENE,75,5.2,6.6,100,0.00,,FEW250,0.00,VWS V14.01,2013-06-04 12:17:00,
2013-06-04 08:22:00,56.8,56.8,30.10,NE,35,4.4,10.3,100,0.00,,FEW250,0.00,VWS V14.01,2013-06-04 12:22:00,
2013-06-04 08:28:00,57.7,57.7,30.10,East,82,5.9,8.5,100,0.00,,FEW250,0.00,VWS V14.01,2013-06-04 12:28:00,
2013-06-04 08:33:00,58.6,58.6,30.10,NNW,331,5.2,11.3,100,0.00,,FEW250,0.00,VWS V14.01,2013-06-04 12:33:00,
2013-06-04 08:38:00,59.2,59.2,30.10,NNE,32,5.9,11.3,100,0.00,,FEW250,0.00,VWS V14.01,2013-06-04 12:38:00,
2013-06-04 08:43:00,59.9,59.9,30.10,ESE,114,4.4,7.5,100,0.00,,FEW250,0.00,VWS V14.01,2013-06-04 12:43:00,
2013-06-04 08:48:00,60.8,60.8,30.10,East,88,7.4,9.4,100,0.00,,FEW250,0.00,VWS V14.01,2013-06-04 12:48:00,
2013-06-04 08:54:00,61.5,61.5,30.10,East,83,4.4,7.5,100,0.00,,FEW250,0.00,VWS V14.01,2013-06-04 12:54:00,
2013-06-04 08:59:00,61.9,61.9,30.10,ENE,71,8.1,10.3,100,0.00,,FEW250,0.00,VWS V14.01,2013-06-04 12:59:00,
2013-06-04 09:04:00,62.6,62.6,30.10,East,91,8.9,11.3,100,0.00,,SCT250,0.00,VWS V14.01,2013-06-04 13:04:00,
2013-06-04 09:09:00,62.8,62.8,30.10,ESE,105,5.9,10.3,100,0.00,,SCT250,0.00,VWS V14.01,2013-06-04 13:09:00,
2013-06-04 09:14:00,62.8,62.8,30.10,NE,51,4.4,12.2,100,0.00,,SCT250,0.00,VWS V14.01,2013-06-04 13:14:00,
2013-06-04 09:19:00,63.0,62.6,30.10,ENE,62,9.6,14.1,99,0.00,,SCT250,0.00,VWS V14.01,2013-06-04 13:19:00,
2013-06-04 09:24:00,63.1,62.2,30.10,East,98,13.3,16.9,97,0.00,,SCT250,0.00,VWS V14.01,2013-06-04 13:24:00,
2013-06-04 09:30:00,63.5,60.5,30.10,NNE,17,5.9,8.5,90,0.00,,SCT250,0.00,VWS V14.01,2013-06-04 13:30:00,
2013-06-04 09:35:00,63.7,61.8,30.10,ESE,118,5.2,6.6,94,0.00,,SCT250,0.00,VWS V14.01,2013-06-04 13:35:00,
2013-06-04 09:40:00,64.2,61.8,30.10,North,353,5.2,10.3,92,0.00,,SCT250,0.00,VWS V14.01,2013-06-04 13:40:00,
2013-06-04 09:45:00,64.6,61.1,30.10,ENE,75,4.4,7.5,88,0.00,,SCT250,0.00,VWS V14.01,2013-06-04 13:45:00,
2013-06-04 09:50:00,64.8,60.7,30.10,East,90,8.1,11.3,87,0.00,,SCT250,0.00,VWS V14.01,2013-06-04 13:50:00,
2013-06-04 09:56:00,65.5,61.4,30.10,North,357,5.9,14.1,87,0.00,,SCT250,0.00,VWS V14.01,2013-06-04 13:56:00,
2013-06-04 10:01:00,66.0,61.4,30.10,NE,38,10.3,13.2,85,0.00,,SCT250,0.00,VWS V14.01,2013-06-04 14:01:00,
2013-06-04 10:06:00,66.2,60.4,30.10,ENE,69,6.6,13.2,82,0.00,,SCT250,0.00,VWS V14.01,2013-06-04 14:06:00,
2013-06-04 10:11:00,66.2,60.4,30.13,ENE,63,5.2,10.3,82,0.00,,SCT250,0.00,VWS V14.01,2013-06-04 14:11:00,
2013-06-04 10:17:00,66.6,60.8,30.13,NE,44,5.9,8.5,82,0.00,,SCT250,0.00,VWS V14.01,2013-06-04 14:17:00,
2013-06-04 10:22:00,67.1,61.3,30.13,SE,126,4.4,8.5,82,0.00,,SCT250,0.00,VWS V14.01,2013-06-04 14:22:00,
2013-06-04 10:27:00,67.3,60.9,30.13,ENE,65,6.6,10.3,80,0.00,,SCT250,0.00,VWS V14.01,2013-06-04 14:27:00,
2013-06-04 10:32:00,67.8,60.8,30.13,ENE,74,4.4,6.6,78,0.00,,SCT250,0.00,VWS V14.01,2013-06-04 14:32:00,
2013-06-04 10:37:00,67.6,60.0,30.13,ESE,102,4.4,11.3,76,0.00,,SCT250,0.00,VWS V14.01,2013-06-04 14:37:00,
2013-06-04 10:42:00,67.6,60.6,30.10,ESE,105,3.7,5.6,78,0.00,,SCT250,0.00,VWS V14.01,2013-06-04 14:42:00,
2013-06-04 10:47:00,67.8,60.2,30.10,NNE,33,8.1,11.3,76,0.00,,SCT250,0.00,VWS V14.01,2013-06-04 14:47:00,
2013-06-04 10:53:00,67.6,60.0,30.10,SE,126,6.6,8.5,76,0.00,,SCT250,0.00,VWS V14.01,2013-06-04 14:53:00,
2013-06-04 10:58:00,68.0,60.3,30.10,SE,139,10.3,13.2,76,0.00,,SCT250,0.00,VWS V14.01,2013-06-04 14:58:00,
2013-06-04 11:03:00,68.4,60.1,30.10,ESE,103,6.6,8.5,75,0.00,,SCT250,0.00,VWS V14.01,2013-06-04 15:03:00,
2013-06-04 11:08:00,68.5,60.2,30.10,SE,133,0.0,4.7,75,0.00,,SCT250,0.00,VWS V14.01,2013-06-04 15:08:00,
2013-06-04 11:14:00,68.9,60.6,30.10,ESE,108,8.9,11.3,75,0.00,,SCT250,0.00,VWS V14.01,2013-06-04 15:14:00,
2013-06-04 11:19:00,69.6,60.6,30.10,NE,48,6.6,8.5,73,0.00,,SCT250,0.00,VWS V14.01,2013-06-04 15:19:00,
2013-06-04 11:24:00,70.0,61.0,30.10,SSW,200,8.9,11.3,73,0.00,,SCT250,0.00,VWS V14.01,2013-06-04 15:24:00,
2013-06-04 11:29:00,70.0,59.6,30.10,NE,56,4.4,7.5,70,0.00,,SCT250,0.00,VWS V14.01,2013-06-04 15:29:00,
2013-06-04 11:34:00,70.0,59.0,30.10,ENE,60,5.2,11.3,68,0.00,,SCT250,0.00,VWS V14.01,2013-06-04 15:34:00,
2013-06-04 11:40:00,69.8,58.8,30.10,ESE,102,4.4,6.6,68,0.00,,SCT300,0.00,VWS V14.01,2013-06-04 15:40:00,
2013-06-04 11:45:00,69.6,58.6,30.10,NE,51,8.1,12.2,68,0.00,,SCT300,0.00,VWS V14.01,2013-06-04 15:45:00,
2013-06-04 11:50:00,69.4,57.0,30.10,NE,54,6.6,12.2,65,0.00,,SCT300,0.00,VWS V14.01,2013-06-04 15:50:00,
2013-06-04 11:55:00,69.4,59.1,30.10,ESE,117,8.9,11.3,70,0.00,,SCT300,0.00,VWS V14.01,2013-06-04 15:55:00,
2013-06-04 12:00:00,70.0,58.2,30.10,East,97,4.4,10.3,66,0.00,,SCT300,0.00,VWS V14.01,2013-06-04 16:00:00,
2013-06-04 12:06:00,70.0,58.2,30.10,ESE,103,8.9,16.9,66,0.00,,SCT300,0.00,VWS V14.01,2013-06-04 16:06:00,
2013-06-04 12:11:00,70.3,60.0,30.10,East,86,9.6,16.0,70,0.00,,SCT300,0.00,VWS V14.01,2013-06-04 16:11:00,
2013-06-04 12:17:00,70.7,58.2,30.10,NE,55,6.6,8.5,65,0.00,,SCT300,0.00,VWS V14.01,2013-06-04 16:17:00,
2013-06-04 12:22:00,70.3,57.1,30.10,NNE,26,13.3,16.9,63,0.00,,SCT300,0.00,VWS V14.01,2013-06-04 16:22:00,
2013-06-04 12:27:00,69.8,57.3,30.10,NE,45,4.4,8.5,65,0.00,,SCT300,0.00,VWS V14.01,2013-06-04 16:27:00,
2013-06-04 12:32:00,70.0,57.5,30.10,East,92,10.3,13.2,65,0.00,,SCT300,0.00,VWS V14.01,2013-06-04 16:32:00,
2013-06-04 12:37:00,70.2,57.7,30.10,North,6,4.4,7.5,65,0.00,,FEW300,0.00,VWS V14.01,2013-06-04 16:37:00,
2013-06-04 12:43:00,70.3,58.6,30.10,ENE,63,5.2,11.3,66,0.00,,FEW300,0.00,VWS V14.01,2013-06-04 16:43:00,
2013-06-04 12:48:00,70.9,60.5,30.10,NNW,336,9.6,22.1,70,0.00,,FEW300,0.00,VWS V14.01,2013-06-04 16:48:00,
2013-06-04 12:53:00,71.1,58.5,30.10,East,83,8.9,16.0,65,0.00,,FEW300,0.00,VWS V14.01,2013-06-04 16:53:00,
2013-06-04 12:58:00,70.7,57.5,30.10,ENE,70,12.5,16.9,63,0.00,,FEW300,0.00,VWS V14.01,2013-06-04 16:58:00,
2013-06-04 13:03:00,70.3,57.1,30.10,ESE,103,8.9,12.2,63,0.00,,FEW300,0.00,VWS V14.01,2013-06-04 17:03:00,
2013-06-04 13:08:00,70.7,58.2,30.10,ENE,65,12.5,16.9,65,0.00,,FEW300,0.00,VWS V14.01,2013-06-04 17:08:00,
2013-06-04 13:13:00,71.2,58.7,30.07,ENE,68,6.6,8.5,65,0.00,,FEW300,0.00,VWS V14.01,2013-06-04 17:13:00,
2013-06-04 13:18:00,71.4,58.9,30.07,East,95,4.4,7.5,65,0.00,,FEW300,0.00,VWS V14.01,2013-06-04 17:18:00,
2013-06-04 13:24:00,71.6,59.0,30.07,NNE,24,10.3,22.1,65,0.00,,FEW300,0.00,VWS V14.01,2013-06-04 17:24:00,
2013-06-04 13:29:00,71.8,60.0,30.07,East,97,5.2,7.5,66,0.00,,FEW300,0.00,VWS V14.01,2013-06-04 17:29:00,
2013-06-04 13:34:00,72.3,59.7,30.07,ENE,63,10.3,13.2,65,0.00,,FEW300,0.00,VWS V14.01,2013-06-04 17:34:00,
2013-06-04 13:39:00,72.3,58.2,30.07,ESE,114,3.7,7.5,61,0.00,,FEW300,0.00,VWS V14.01,2013-06-04 17:39:00,
2013-06-04 13:44:00,72.5,57.6,30.07,East,91,12.5,17.4,60,0.00,,FEW300,0.00,VWS V14.01,2013-06-04 17:44:00,
2013-06-04 13:49:00,72.5,57.6,30.07,NE,53,8.9,12.2,60,0.00,,FEW300,0.00,VWS V14.01,2013-06-04 17:49:00,
2013-06-04 13:55:00,72.3,57.4,30.07,ENE,57,6.6,13.2,60,0.00,,BKN300,0.00,VWS V14.01,2013-06-04 17:55:00,
2013-06-04 14:00:00,72.3,58.2,30.07,SSE,163,8.9,13.2,61,0.00,,BKN300,0.00,VWS V14.01,2013-06-04 18:00:00,
2013-06-04 14:05:00,72.3,58.2,30.07,East,80,8.9,16.0,61,0.00,,BKN300,0.00,VWS V14.01,2013-06-04 18:05:00,
2013-06-04 14:10:00,72.3,58.2,30.07,ESE,123,6.6,8.5,61,0.00,,BKN300,0.00,VWS V14.01,2013-06-04 18:10:00,
2013-06-04 14:15:00,72.9,58.7,30.07,East,85,8.9,11.3,61,0.00,,BKN300,0.00,VWS V14.01,2013-06-04 18:15:00,
2013-06-04 14:20:00,73.2,58.3,30.07,East,95,10.3,16.9,60,0.00,,BKN300,0.00,VWS V14.01,2013-06-04 18:20:00,
2013-06-04 14:26:00,73.0,58.1,30.07,East,85,8.9,13.2,60,0.00,,BKN300,0.00,VWS V14.01,2013-06-04 18:26:00,
2013-06-04 14:31:00,72.9,58.0,30.07,NNE,20,9.6,12.2,60,0.00,,BKN300,0.00,VWS V14.01,2013-06-04 18:31:00,
2013-06-04 14:36:00,72.5,57.6,30.07,NNE,28,8.9,13.2,60,0.00,,BKN300,0.00,VWS V14.01,2013-06-04 18:36:00,
2013-06-04 14:41:00,72.5,58.4,30.07,ESE,119,6.6,12.2,61,0.00,,BKN300,0.00,VWS V14.01,2013-06-04 18:41:00,
2013-06-04 14:46:00,73.0,58.9,30.07,ESE,113,5.9,10.3,61,0.00,,BKN300,0.00,VWS V14.01,2013-06-04 18:46:00,
2013-06-04 14:51:00,73.4,58.5,30.07,ESE,110,9.6,22.1,60,0.00,,BKN300,0.00,VWS V14.01,2013-06-04 18:51:00,
2013-06-04 14:56:00,73.4,58.5,30.07,ESE,111,5.9,11.3,60,0.00,,BKN300,0.00,VWS V14.01,2013-06-04 18:56:00,
2013-06-04 15:02:00,73.4,57.7,30.07,SSE,165,5.2,8.5,58,0.00,,BKN300,0.00,VWS V14.01,2013-06-04 19:02:00,
2013-06-04 15:07:00,73.8,58.0,30.07,ESE,103,4.4,7.5,58,0.00,,BKN300,0.00,VWS V14.01,2013-06-04 19:07:00,
2013-06-04 15:12:00,74.3,58.5,30.07,ESE,113,4.4,8.5,58,0.00,,BKN300,0.00,VWS V14.01,2013-06-04 19:12:00,
2013-06-04 15:17:00,74.1,58.3,30.07,SSE,153,6.6,8.5,58,0.00,,BKN300,0.00,VWS V14.01,2013-06-04 19:17:00,
2013-06-04 15:23:00,73.8,58.0,30.07,SSE,159,5.9,8.5,58,0.00,,BKN300,0.00,VWS V14.01,2013-06-04 19:23:00,
2013-06-04 15:28:00,73.4,56.8,30.07,ESE,106,3.7,6.6,56,0.00,,BKN300,0.00,VWS V14.01,2013-06-04 19:28:00,
2013-06-04 15:33:00,73.2,58.3,30.07,ENE,74,5.2,6.6,60,0.00,,BKN300,0.00,VWS V14.01,2013-06-04 19:33:00,
2013-06-04 15:38:00,72.9,58.0,30.07,North,353,6.6,8.5,60,0.00,,BKN300,0.00,VWS V14.01,2013-06-04 19:38:00,
2013-06-04 15:43:00,73.0,58.9,30.07,NE,36,5.2,6.6,61,0.00,,BKN300,0.00,VWS V14.01,2013-06-04 19:43:00,
2013-06-04 15:49:00,73.4,58.5,30.07,SSE,151,5.9,7.5,60,0.00,,BKN300,0.00,VWS V14.01,2013-06-04 19:49:00,
2013-06-04 15:54:00,74.3,59.3,30.07,SSE,157,0.0,0.0,60,0.00,,BKN300,0.00,VWS V14.01,2013-06-04 19:54:00,
2013-06-04 15:59:00,74.8,59.0,30.07,ENE,68,6.6,11.3,58,0.00,,BKN300,0.00,VWS V14.01,2013-06-04 19:59:00,
2013-06-04 16:04:00,74.7,58.0,30.07,NE,36,3.7,6.6,56,0.00,,BKN300,0.00,VWS V14.01,2013-06-04 20:04:00,
2013-06-04 16:09:00,74.7,58.8,30.07,NE,37,6.6,17.4,58,0.00,,BKN300,0.00,VWS V14.01,2013-06-04 20:09:00,
2013-06-04 16:14:00,74.1,57.5,30.07,NNE,26,8.9,12.2,56,0.00,,BKN300,0.00,VWS V14.01,2013-06-04 20:14:00,
2013-06-04 16:20:00,73.6,57.0,30.07,ESE,107,5.9,7.5,56,0.00,,BKN300,0.00,VWS V14.01,2013-06-04 20:20:00,
2013-06-04 16:25:00,73.4,57.7,30.07,ENE,76,4.4,7.5,58,0.00,,BKN300,0.00,VWS V14.01,2013-06-04 20:25:00,
2013-06-04 16:30:00,73.6,57.8,30.07,East,92,4.4,5.6,58,0.00,,BKN300,0.00,VWS V14.01,2013-06-04 20:30:00,
2013-06-04 16:35:00,73.9,58.2,30.07,ENE,64,8.9,17.4,58,0.00,,BKN300,0.00,VWS V14.01,2013-06-04 20:35:00,
2013-06-04 16:40:00,74.3,58.5,30.07,SE,128,5.9,10.3,58,0.00,,BKN300,0.00,VWS V14.01,2013-06-04 20:40:00,
2013-06-04 16:45:00,74.7,58.8,30.04,East,92,5.9,12.2,58,0.00,,BKN300,0.00,VWS V14.01,2013-06-04 20:45:00,
2013-06-04 16:50:00,74.8,59.0,30.04,East,90,10.3,13.2,58,0.00,,BKN300,0.00,VWS V14.01,2013-06-04 20:50:00,
2013-06-04 16:55:00,74.8,57.3,30.04,North,357,5.2,6.6,54,0.00,,BKN300,0.00,VWS V14.01,2013-06-04 20:55:00,
2013-06-04 17:00:00,74.8,58.2,30.04,NE,46,8.9,11.3,56,0.00,,BKN300,0.00,VWS V14.01,2013-06-04 21:00:00,
2013-06-04 17:06:00,74.7,58.0,30.04,NE,52,9.6,17.4,56,0.00,,BKN300,0.00,VWS V14.01,2013-06-04 21:06:00,
2013-06-04 17:11:00,74.3,57.7,30.04,SE,128,6.6,8.5,56,0.00,,BKN300,0.00,VWS V14.01,2013-06-04 21:11:00,
2013-06-04 17:16:00,73.9,57.3,30.04,East,92,6.6,8.5,56,0.00,,BKN300,0.00,VWS V14.01,2013-06-04 21:16:00,
2013-06-04 17:21:00,73.9,57.3,30.04,ENE,73,4.4,8.5,56,0.00,,BKN300,0.00,VWS V14.01,2013-06-04 21:21:00,
2013-06-04 17:27:00,73.9,58.2,30.04,ENE,69,8.1,10.3,58,0.00,,BKN300,0.00,VWS V14.01,2013-06-04 21:27:00,
2013-06-04 17:32:00,74.1,58.3,30.04,ENE,68,8.9,11.3,58,0.00,,BKN300,0.00,VWS V14.01,2013-06-04 21:32:00,
2013-06-04 17:37:00,74.5,58.7,30.04,East,85,5.2,8.5,58,0.00,,BKN300,0.00,VWS V14.01,2013-06-04 21:37:00,
2013-06-04 17:42:00,75.0,58.3,30.04,East,95,10.3,13.2,56,0.00,,BKN300,0.00,VWS V14.01,2013-06-04 21:42:00,
2013-06-04 17:48:00,74.7,58.0,30.04,NE,56,9.6,12.2,56,0.00,,BKN300,0.00,VWS V14.01,2013-06-04 21:48:00,
2013-06-04 17:53:00,74.3,57.7,30.04,North,3,4.4,8.5,56,0.00,,BKN300,0.00,VWS V14.01,2013-06-04 21:53:00,
2013-06-04 17:58:00,73.9,57.3,30.04,NE,46,5.2,6.6,56,0.00,,BKN300,0.00,VWS V14.01,2013-06-04 21:58:00,
2013-06-04 18:03:00,73.8,57.2,30.04,ESE,108,5.9,8.5,56,0.00,,BKN300,0.00,VWS V14.01,2013-06-04 22:03:00,
2013-06-04 18:08:00,73.6,57.8,30.04,ESE,108,5.2,6.6,58,0.00,,BKN300,0.00,VWS V14.01,2013-06-04 22:08:00,
2013-06-04 18:14:00,73.6,57.8,30.04,NE,41,8.1,12.2,58,0.00,,BKN300,0.00,VWS V14.01,2013-06-04 22:14:00,
2013-06-04 18:19:00,73.6,57.8,30.04,East,88,6.6,8.5,58,0.00,,BKN300,0.00,VWS V14.01,2013-06-04 22:19:00,
2013-06-04 18:24:00,73.6,57.8,30.04,ENE,76,6.6,11.3,58,0.00,,BKN300,0.00,VWS V14.01,2013-06-04 22:24:00,
2013-06-04 18:29:00,73.6,57.8,30.04,ESE,106,3.7,7.5,58,0.00,,BKN300,0.00,VWS V14.01,2013-06-04 22:29:00,
2013-06-04 18:35:00,73.8,58.8,30.04,East,83,3.7,6.6,60,0.00,,BKN300,0.00,VWS V14.01,2013-06-04 22:35:00,
2013-06-04 18:40:00,73.8,58.8,30.04,NE,42,8.1,12.2,60,0.00,,BKN300,0.00,VWS V14.01,2013-06-04 22:40:00,
2013-06-04 18:45:00,73.6,57.8,30.04,East,94,5.9,7.5,58,0.00,,BKN300,0.00,VWS V14.01,2013-06-04 22:45:00,
2013-06-04 18:50:00,73.4,57.7,30.04,NNE,33,5.9,12.2,58,0.00,,BKN300,0.00,VWS V14.01,2013-06-04 22:50:00,
2013-06-04 18:55:00,73.2,58.3,30.04,NE,51,6.6,8.5,60,0.00,,BKN300,0.00,VWS V14.01,2013-06-04 22:55:00,
2013-06-04 19:00:00,73.0,58.1,30.04,East,100,3.7,8.5,60,0.00,,BKN300,0.00,VWS V14.01,2013-06-04 23:00:00,
2013-06-04 19:05:00,73.0,58.1,30.04,ENE,62,5.2,10.3,60,0.00,,BKN300,0.00,VWS V14.01,2013-06-04 23:05:00,
2013-06-04 19:10:00,72.9,58.0,30.04,NE,48,5.2,9.4,60,0.00,,BKN300,0.00,VWS V14.01,2013-06-04 23:10:00,
2013-06-04 19:15:00,72.7,57.8,30.04,ENE,57,5.2,6.6,60,0.00,,BKN300,0.00,VWS V14.01,2013-06-04 23:15:00,
2013-06-04 19:21:00,72.7,57.8,30.04,NE,48,4.4,7.5,60,0.00,,BKN300,0.00,VWS V14.01,2013-06-04 23:21:00,
2013-06-04 19:26:00,72.5,57.6,30.04,NE,46,3.7,6.6,60,0.00,,BKN300,0.00,VWS V14.01,2013-06-04 23:26:00,
2013-06-04 19:31:00,72.3,58.2,30.04,NE,34,6.6,8.5,61,0.00,,BKN300,0.00,VWS V14.01,2013-06-04 23:31:00,
2013-06-04 19:36:00,72.1,58.0,30.04,East,85,4.4,7.5,61,0.00,,BKN300,0.00,VWS V14.01,2013-06-04 23:36:00,
2013-06-04 19:41:00,72.1,58.0,30.04,East,80,5.9,8.5,61,0.00,,BKN300,0.00,VWS V14.01,2013-06-04 23:41:00,
2013-06-04 19:46:00,72.0,57.9,30.04,ENE,70,0.0,0.0,61,0.00,,BKN300,0.00,VWS V14.01,2013-06-04 23:46:00,
2013-06-04 19:51:00,72.0,57.9,30.04,East,101,3.7,5.6,61,0.00,,BKN300,0.00,VWS V14.01,2013-06-04 23:51:00,
2013-06-04 19:57:00,71.8,57.7,30.04,ENE,57,0.0,8.5,61,0.00,,BKN300,0.00,VWS V14.01,2013-06-04 23:57:00,
2013-06-04 20:02:00,71.6,57.5,30.04,ENE,69,0.0,0.0,61,0.00,,BKN300,0.00,VWS V14.01,2013-06-05 00:02:00,
2013-06-04 20:07:00,71.4,58.1,30.04,ENE,68,0.0,0.0,63,0.00,,BKN300,0.00,VWS V14.01,2013-06-05 00:07:00,
2013-06-04 20:12:00,71.2,58.7,30.01,East,81,0.0,0.0,65,0.00,,BKN300,0.00,VWS V14.01,2013-06-05 00:12:00,
2013-06-04 20:17:00,71.2,58.7,30.01,NE,49,0.0,0.0,65,0.00,,BKN300,0.00,VWS V14.01,2013-06-05 00:17:00,
2013-06-04 20:22:00,71.1,58.5,30.01,East,79,0.0,0.0,65,0.00,,BKN300,0.00,VWS V14.01,2013-06-05 00:22:00,
2013-06-04 20:28:00,70.9,58.4,30.01,East,79,0.0,0.0,65,0.00,,BKN300,0.00,VWS V14.01,2013-06-05 00:28:00,
2013-06-04 20:33:00,70.7,58.2,30.01,East,85,0.0,0.0,65,0.00,,BKN300,0.00,VWS V14.01,2013-06-05 00:33:00,
2013-06-04 20:38:00,70.5,58.8,30.01,East,86,3.7,6.6,66,0.00,,BKN300,0.00,VWS V14.01,2013-06-05 00:38:00,
2013-06-04 20:43:00,70.3,58.6,30.01,East,86,4.4,6.6,66,0.00,,BKN300,0.00,VWS V14.01,2013-06-05 00:43:00,
2013-06-04 20:48:00,70.2,58.4,30.01,East,90,4.4,5.6,66,0.00,,BKN300,0.00,VWS V14.01,2013-06-05 00:48:00,
2013-06-04 20:54:00,70.0,58.2,30.01,East,93,4.4,6.6,66,0.00,,BKN300,0.00,VWS V14.01,2013-06-05 00:54:00,
2013-06-04 20:59:00,70.0,59.0,30.01,East,92,0.0,8.5,68,0.00,,BKN300,0.00,VWS V14.01,2013-06-05 00:59:00,
2013-06-04 21:04:00,69.8,58.8,30.01,East,93,0.0,6.6,68,0.00,,BKN300,0.00,VWS V14.01,2013-06-05 01:04:00,
2013-06-04 21:09:00,69.4,59.1,30.01,East,91,0.0,0.0,70,0.00,,BKN300,0.00,VWS V14.01,2013-06-05 01:09:00,
2013-06-04 21:14:00,69.3,59.0,30.01,East,93,0.0,0.0,70,0.00,,BKN300,0.00,VWS V14.01,2013-06-05 01:14:00,
2013-06-04 21:19:00,68.9,59.3,30.01,East,93,0.0,0.0,71,0.00,,BKN300,0.00,VWS V14.01,2013-06-05 01:19:00,
2013-06-04 21:24:00,68.7,59.1,30.01,East,93,0.0,0.0,71,0.00,,BKN300,0.00,VWS V14.01,2013-06-05 01:24:00,
2013-06-04 21:29:00,68.4,60.1,30.01,East,93,0.0,0.0,75,0.00,,BKN300,0.00,VWS V14.01,2013-06-05 01:29:00,
2013-06-04 21:34:00,68.0,59.7,30.01,East,93,0.0,0.0,75,0.00,,BKN300,0.00,VWS V14.01,2013-06-05 01:34:00,
2013-06-04 21:40:00,67.6,59.4,30.04,East,93,0.0,0.0,75,0.00,,BKN250,0.00,VWS V14.01,2013-06-05 01:40:00,
2013-06-04 21:45:00,67.3,59.7,30.04,East,93,0.0,0.0,76,0.00,,BKN250,0.00,VWS V14.01,2013-06-05 01:45:00,
2013-06-04 21:50:00,67.1,60.1,30.04,East,93,0.0,0.0,78,0.00,,BKN250,0.00,VWS V14.01,2013-06-05 01:50:00,
2013-06-04 21:55:00,66.6,59.6,30.04,East,93,0.0,0.0,78,0.00,,BKN250,0.00,VWS V14.01,2013-06-05 01:55:00,
2013-06-04 22:00:00,66.2,60.4,30.04,East,93,0.0,0.0,82,0.00,,BKN250,0.00,VWS V14.01,2013-06-05 02:00:00,
2013-06-04 22:05:00,65.8,61.2,30.04,East,93,0.0,0.0,85,0.00,,BKN250,0.00,VWS V14.01,2013-06-05 02:05:00,
2013-06-04 22:10:00,65.5,62.0,30.04,East,91,0.0,0.0,88,0.00,,BKN250,0.00,VWS V14.01,2013-06-05 02:10:00,
2013-06-04 22:16:00,65.3,61.8,30.04,East,93,0.0,0.0,88,0.00,,BKN250,0.00,VWS V14.01,2013-06-05 02:16:00,
2013-06-04 22:21:00,64.9,62.0,30.04,East,93,0.0,0.0,90,0.00,,BKN250,0.00,VWS V14.01,2013-06-05 02:21:00,
2013-06-04 22:27:00,64.8,62.3,30.04,East,93,0.0,0.0,92,0.00,,BKN250,0.00,VWS V14.01,2013-06-05 02:27:00,
2013-06-04 22:32:00,64.6,62.2,30.04,East,93,0.0,0.0,92,0.00,,BKN250,0.00,VWS V14.01,2013-06-05 02:32:00,
2013-06-04 22:37:00,64.2,63.3,30.04,East,93,0.0,0.0,97,0.00,,BKN250,0.00,VWS V14.01,2013-06-05 02:37:00,
2013-06-04 22:42:00,64.0,64.0,30.04,East,93,0.0,0.0,100,0.00,,BKN250,0.00,VWS V14.01,2013-06-05 02:42:00,
2013-06-04 22:47:00,63.9,63.9,30.04,East,93,0.0,0.0,100,0.00,,BKN250,0.00,VWS V14.01,2013-06-05 02:47:00,
2013-06-04 22:53:00,63.5,63.5,30.04,East,93,0.0,0.0,100,0.00,,BKN250,0.00,VWS V14.01,2013-06-05 02:53:00,
2013-06-04 22:58:00,63.3,63.3,30.04,East,93,0.0,0.0,100,0.00,,BKN250,0.00,VWS V14.01,2013-06-05 02:58:00,
2013-06-04 23:03:00,63.1,63.1,30.04,East,93,0.0,0.0,100,0.00,,BKN250,0.00,VWS V14.01,2013-06-05 03:03:00,
2013-06-04 23:09:00,63.0,63.0,30.04,East,93,0.0,0.0,100,0.00,,BKN250,0.00,VWS V14.01,2013-06-05 03:09:00,
2013-06-04 23:14:00,62.6,62.6,30.04,East,95,0.0,0.0,100,0.00,,BKN250,0.00,VWS V14.01,2013-06-05 03:14:00,
2013-06-04 23:19:00,62.4,62.4,30.04,East,93,0.0,0.0,100,0.00,,BKN250,0.00,VWS V14.01,2013-06-05 03:19:00,
2013-06-04 23:24:00,62.2,62.2,30.04,East,93,0.0,0.0,100,0.00,,BKN250,0.00,VWS V14.01,2013-06-05 03:24:00,
2013-06-04 23:30:00,62.1,62.1,30.04,East,93,0.0,0.0,100,0.00,,BKN250,0.00,VWS V14.01,2013-06-05 03:30:00,
2013-06-04 23:35:00,61.9,61.9,30.04,East,93,0.0,0.0,100,0.00,,BKN250,0.00,VWS V14.01,2013-06-05 03:35:00,
2013-06-04 23:40:00,61.7,61.7,30.04,East,93,0.0,0.0,100,0.00,,BKN250,0.00,VWS V14.01,2013-06-05 03:40:00,
2013-06-04 23:45:00,61.7,61.7,30.04,East,93,0.0,0.0,100,0.00,,BKN250,0.00,VWS V14.01,2013-06-05 03:45:00,
2013-06-04 23:50:00,61.5,61.5,30.04,East,93,0.0,0.0,100,0.00,,BKN250,0.00,VWS V14.01,2013-06-05 03:50:00,
2013-06-04 23:55:00,61.5,61.5,30.04,East,93,0.0,0.0,100,0.00,,BKN250,0.00,VWS V14.01,2013-06-05 03:55:00,